This demonstration page uses our WeatherBlox Daily Observations layout. Learn more.

39.92423, -83.80882

Hourly Observations for June 27, 2017

Temp ( °F °C ) Dew Point ( °F °C ) Humidity (%) Winds ( mph kmh ) Pressure ( in mb ) Visibility ( mi km ) Precip ( " mm )
12:56 am 00:56 Mostly Cloudy 54 12.2 52 11.1 93 93 WSW 6 9 30.07 1018 10 16.0934 0 0
1:56 am 01:56 Clear 53 11.7 51 10.6 93 93 SW 7 11 30.07 1018 10 16.0934 0 0
2:56 am 02:56 Clear 52 11.1 50 10 93 93 WSW 6 9 30.07 1018 10 16.0934 0 0
3:56 am 03:56 Clear 52 11.1 50 10 93 93 W 6 9 30.07 1018 10 16.0934 0 0
5:56 am 05:56 Clear 50 10 49 9.4 96 96 WNW 6 9 30.1 1019 10 16.0934 0 0
6:56 am 06:56 Sunny 52 11.1 50 10 93 93 WSW 6 9 30.12 1020 10 16.0934 0 0
7:56 am 07:56 Sunny 56 13.3 52 11.1 87 87 W 7 11 30.13 1020 10 16.0934 0 0
8:56 am 08:56 Sunny 59 15 51 10.6 75 75 NW 6 9 30.14 1021 10 16.0934 0 0
9:56 am 09:56 Partly Cloudy 62 16.7 51 10.6 67 67 NW 9 15 30.15 1021 10 16.0934 0 0
10:10 am 10:10 Mostly Cloudy 63 17 52 11 68 68 WNW 12 19 30.15 1021 10 16.0934 0 0
11:03 am 11:03 Mostly Cloudy 64 18 50 10 60 60 NW 10 17 30.15 1021 10 16.0934 0 0
11:56 am 11:56 Mostly Cloudy 66 18.9 50 10 56 56 NW 10 17 30.15 1021 10 16.0934 0 0
12:56 pm 12:56 Mostly Cloudy 66 18.9 49 9.4 54 54 WNW 8 13 30.14 1021 10 16.0934 0 0
1:56 pm 13:56 Partly Cloudy 68 20 49 9.4 51 51 W 9 15 30.14 1021 10 16.0934 0 0
2:56 pm 14:56 Partly Cloudy 70 21.1 48 8.9 46 46 W 8 13 30.13 1020 10 16.0934 0 0
3:56 pm 15:56 Mostly Sunny 70 21.1 49 9.4 47 47 W 9 15 30.12 1020 10 16.0934 0 0
4:56 pm 16:56 Partly Cloudy 71 21.7 46 7.8 41 41 VRB 6 9 30.11 1020 9 14.48406 0 0
5:56 pm 17:56 Mostly Sunny 71 21.7 45 7.2 39 39 NW 6 9 30.11 1020 10 16.0934 0 0
6:56 pm 18:56 Sunny 70 21.1 45 7.2 41 41 WNW 5 7 30.1 1019 10 16.0934 0 0
7:56 pm 19:56 Sunny 68 20 47 8.3 47 47 undefined N/A 30.1 1019 10 16.0934 0 0
8:56 pm 20:56 Sunny 66 18.9 47 8.3 50 50 Calm 30.1 1019 10 16.0934 0 0
9:56 pm 21:56 Clear 59 15 52 11.1 78 78 Calm 30.11 1020 10 16.0934 0 0
10:56 pm 22:56 Clear 58 14.4 50 10 75 75 Calm 30.13 1020 10 16.0934 0 0
11:56 pm 23:56 Clear 55 12.8 50 10 83 83 Calm 30.13 1020 10 16.0934 0 0

Powered by AerisWeather